GW5460 Weather Reports


time (UTC)temp
C
wind
direction
speed
KPH
gust
KPH
rain 1hr
cm
rain 24hr
cm
rain mn
cm
humidity
%
barometer
mb
20260505140537 11 211 1.6 3.2 0.00 0.00 0.00 94 1015.3
20260505124518 11 128 0.0 3.2 0.00 0.00 0.00 96 1014.9
20260505123539 11 107 1.6 3.2 0.00 0.00 0.00 96 1014.8
20260505122518 11 216 0.0 3.2 0.00 0.00 0.00 96 1014.9
20260505121519 11 182 0.0 1.6 0.00 0.00 0.00 95 1014.9
20260505120519 11 167 0.0 1.6 0.00 0.00 0.00 95 1014.8
20260505115519 11 207 0.0 3.2 0.00 0.00 0.00 96 1014.8
20260505114539 10 129 0.0 3.2 0.00 0.00 0.00 96 1014.8
20260505113519 10 199 0.0 1.6 0.00 0.00 0.00 97 1014.7
20260505112526 10 218 0.0 1.6 0.00 0.00 0.00 98 1014.7
20260505111523 10 202 0.0 3.2 0.00 0.00 0.00 98 1014.6
20260505110517 10 223 0.0 3.2 0.00 0.00 0.00 98 1014.5
20260505101518 10 164 0.0 3.2 0.00 0.00 0.00 97 1014.2
20260505100518 10 177 0.0 3.2 0.00 0.00 0.00 97 1014.2
20260505095520 10 197 0.0 3.2 0.00 0.00 0.00 97 1014.2
20260505094518 10 211 1.6 3.2 0.00 0.00 0.00 97 1014.1
20260505093518 10 215 0.0 3.2 0.00 0.00 0.00 96 1014.0
20260505092538 10 197 1.6 3.2 0.00 0.00 0.00 96 1014.0
20260505091518 10 165 0.0 3.2 0.00 0.00 0.00 96 1013.9
20260505090538 10 210 0.0 1.6 0.00 0.00 0.00 95 1013.8
20260505085537 10 194 0.0 3.2 0.00 0.00 0.00 95 1013.7
20260505084518 10 142 1.6 4.8 0.00 0.00 0.00 95 1013.7
20260505083516 11 178 1.6 4.8 0.00 0.00 0.00 94 1013.8
20260505082517 11 167 0.0 3.2 0.00 0.00 0.00 93 1013.8
20260505081518 11 210 1.6 3.2 0.00 0.00 0.00 92 1013.7
20260505080538 11 184 0.0 3.2 0.00 0.00 0.00 92 1013.6
20260505075517 11 181 1.6 3.2 0.00 0.00 0.00 92 1013.5
20260505074517 11 222 0.0 3.2 0.00 0.00 0.00 91 1013.4
20260505073518 11 159 1.6 4.8 0.00 0.00 0.00 90 1013.3
20260505072539 12 197 1.6 3.2 0.00 0.00 0.00 90 1013.2
20260505071518 12 156 1.6 6.4 0.00 0.00 0.00 89 1013.1
20260505070519 12 104 4.8 9.7 0.00 0.00 0.00 89 1013.1
20260505065600 12 136 1.6 4.8 0.00 0.00 0.00 88 1012.9
20260505064518 12 164 1.6 4.8 0.00 0.00 0.00 88 1012.8
20260505063518 12 162 1.6 4.8 0.00 0.00 0.00 87 1012.6
20260505062538 13 120 4.8 8.0 0.00 0.00 0.00 87 1012.5
20260505061538 13 195 3.2 6.4 0.00 0.00 0.00 87 1012.5
20260505060536 13 127 4.8 8.0 0.00 0.00 0.00 87 1012.5
20260505055517 13 128 4.8 8.0 0.00 0.00 0.00 86 1012.4
20260505054516 13 132 3.2 8.0 0.00 0.00 0.00 86 1012.3
20260505053557 13 152 3.2 11.3 0.00 0.00 0.00 85 1012.3
20260505052516 14 157 3.2 8.0 0.00 0.00 0.00 84 1012.2
20260505051517 15 153 3.2 9.7 0.00 0.00 0.00 83 1012.2
20260505050517 15 130 4.8 11.3 0.00 0.00 0.00 82 1012.1
20260505041517 17 183 0.0 1.6 0.00 0.00 0.00 75 1011.3
20260505040519 17 197 0.0 3.2 0.00 0.00 0.00 73 1011.1
20260505035559 17 166 0.0 1.6 0.00 0.00 0.00 72 1010.9
20260505034519 18 215 1.6 3.2 0.00 0.00 0.00 71 1010.8
20260505033539 18 221 0.0 3.2 0.00 0.00 0.00 70 1010.7
20260505032520 18 178 1.6 4.8 0.00 0.00 0.00 69 1010.7
20260505031519 19 212 1.6 6.4 0.00 0.00 0.00 69 1010.6
20260505030517 19 218 1.6 6.4 0.00 0.00 0.00 69 1010.4
20260505025539 20 205 3.2 8.0 0.00 0.00 0.00 70 1010.3
20260505024539 20 213 1.6 6.4 0.00 0.00 0.00 70 1010.3
20260505023538 20 161 1.6 8.0 0.00 0.00 0.00 69 1010.3
20260505022518 20 186 3.2 9.7 0.00 0.00 0.00 68 1010.3
20260505021517 21 178 3.2 9.7 0.00 0.00 0.00 68 1010.2
20260505020517 21 186 3.2 8.0 0.00 0.00 0.00 68 1010.1
20260505015517 21 189 3.2 6.4 0.00 0.00 0.00 68 1010.1
20260505014518 21 173 1.6 4.8 0.00 0.00 0.00 68 1010.1
20260505013518 22 188 3.2 6.4 0.00 0.00 0.00 67 1010.2
20260505012519 22 217 1.6 6.4 0.00 0.00 0.00 66 1010.2
20260505011519 22 217 3.2 8.0 0.00 0.00 0.00 66 1010.4
20260505010559 22 193 3.2 8.0 0.00 0.00 0.00 66 1010.5
20260505005518 22 188 3.2 6.4 0.00 0.00 0.00 66 1010.4
20260505004518 22 217 1.6 4.8 0.00 0.00 0.00 66 1010.5
20260505003519 22 141 3.2 9.7 0.00 0.00 0.00 65 1010.6
20260505002518 22 209 3.2 8.0 0.00 0.00 0.00 65 1010.6
20260505001519 22 247 1.6 4.8 0.00 0.00 0.00 65 1010.6
20260505000519 22 190 4.8 9.7 0.00 0.00 0.00 63 1010.7
20260504235516 22 173 3.2 9.7 0.00 0.00 0.00 63 1010.8
20260504234518 22 129 3.2 12.9 0.00 0.00 0.00 63 1010.9
20260504233517 22 163 4.8 16.1 0.00 0.00 0.00 63 1011.0
20260504232517 22 107 6.4 14.5 0.00 0.00 0.00 64 1011.0
20260504231537 22 126 4.8 17.7 0.00 0.00 0.00 63 1011.1
20260504230517 22 111 8.0 19.3 0.00 0.00 0.00 64 1011.1
20260504225517 22 115 4.8 12.9 0.00 0.00 0.00 64 1011.3
20260504224518 22 134 4.8 11.3 0.00 0.00 0.00 64 1011.4
20260504223519 22 120 4.8 11.3 0.00 0.00 0.00 63 1011.5
20260504222518 21 104 6.4 16.1 0.00 0.00 0.00 64 1011.5
20260504221518 21 128 6.4 16.1 0.00 0.00 0.00 65 1011.7
20260504220520 22 130 6.4 19.3 0.00 0.00 0.00 64 1011.8
20260504215518 21 135 4.8 12.9 0.00 0.00 0.00 64 1011.9
20260504214519 21 186 4.8 11.3 0.00 0.00 0.00 63 1012.0
20260504213519 21 162 4.8 14.5 0.00 0.00 0.00 66 1012.1
20260504212519 21 97 4.8 17.7 0.00 0.00 0.00 67 1012.2
20260504211519 21 213 1.6 8.0 0.00 0.00 0.00 67 1012.4
20260504210517 20 178 3.2 9.7 0.00 0.00 0.00 66 1012.6
20260504205520 20 105 3.2 12.9 0.00 0.00 0.00 69 1012.7
20260504204517 20 130 4.8 12.9 0.00 0.00 0.00 67 1012.8
20260504203518 18 111 4.8 14.5 0.00 0.00 0.00 70 1012.9
20260504202517 18 107 4.8 11.3 0.00 0.00 0.00 70 1013.1
20260504201517 18 122 4.8 11.3 0.00 0.00 0.00 71 1013.2
20260504200519 18 110 3.2 14.5 0.00 0.00 0.00 71 1013.4
20260504195518 17 131 1.6 9.7 0.00 0.00 0.00 73 1013.4
20260504194518 17 136 3.2 8.0 0.00 0.00 0.00 75 1013.4
20260504193538 16 131 4.8 11.3 0.00 0.00 0.00 76 1013.4
20260504192518 16 176 4.8 9.7 0.00 0.00 0.00 77 1013.5
20260504191520 15 123 6.4 14.5 0.00 0.00 0.00 78 1013.6
20260504190519 15 148 4.8 9.7 0.00 0.00 0.00 79 1013.6
20260504185518 15 189 3.2 9.7 0.00 0.00 0.00 81 1013.6
20260504184518 15 161 4.8 12.9 0.00 0.00 0.00 82 1013.7
20260504183519 15 161 4.8 11.3 0.00 0.00 0.00 83 1013.7
20260504182519 14 156 3.2 11.3 0.00 0.00 0.00 83 1013.7
20260504181540 14 155 3.2 11.3 0.00 0.00 0.00 84 1013.6
20260504180516 14 196 3.2 9.7 0.00 0.00 0.00 84 1013.7
20260504175519 14 192 3.2 8.0 0.00 0.00 0.00 85 1013.6
20260504174539 13 177 3.2 6.4 0.00 0.00 0.00 85 1013.6
20260504173519 13 162 3.2 9.7 0.00 0.00 0.00 86 1013.6
20260504172520 13 188 3.2 9.7 0.00 0.00 0.00 86 1013.6
20260504171518 13 172 3.2 6.4 0.00 0.00 0.00 87 1013.6
20260504170520 13 179 3.2 8.0 0.00 0.00 0.00 87 1013.5
20260504150517 12 219 3.2 6.4 0.00 0.00 0.00 91 1013.1